GW4615 Weather Reports


time (UTC)temp
F
wind
direction
speed
knots
gust
knots
rain 1hr
in
rain 24hr
in
rain mn
in
humidity
%
barometer
mb
20260507233414 60 203 0.9 2.6 0.00 0.00 0.00 39 1011.3
20260507232913 60 220 1.7 5.2 0.00 0.00 0.00 39 1010.9
20260507232409 61 177 1.7 1.7 0.00 0.00 0.00 39 1011.3
20260507231906 61 206 1.7 7.0 0.00 0.00 0.00 36 1011.1
20260507231402 61 121 1.7 5.2 0.00 0.00 0.00 39 1011.0
20260507230859 61 117 2.6 5.2 0.00 0.00 0.00 37 1011.0
20260507230356 61 266 2.6 5.2 0.00 0.00 0.00 42 1010.9
20260507225856 61 99 0.9 1.7 0.00 0.00 0.00 40 1010.9
20260507225353 62 125 1.7 2.6 0.00 0.00 0.00 40 1010.7
20260507224848 62 162 1.7 2.6 0.00 0.00 0.00 38 1010.7
20260507224345 62 149 4.3 6.1 0.00 0.00 0.00 38 1010.5
20260507223841 62 137 3.5 5.2 0.00 0.00 0.00 36 1010.6
20260507223338 62 186 0.9 1.7 0.00 0.00 0.00 37 1010.6
20260507222835 62 294 0.9 5.2 0.00 0.00 0.00 37 1010.3
20260507222331 62 148 5.2 6.1 0.00 0.00 0.00 35 1010.2
20260507221828 63 299 3.5 5.2 0.00 0.00 0.00 37 1010.1
20260507221325 63 187 3.5 7.0 0.00 0.00 0.00 35 1010.1
20260507220821 64 111 0.9 5.2 0.00 0.00 0.00 36 1010.2
20260507220320 65 203 3.5 3.5 0.00 0.00 0.00 36 1010.0
20260507215815 65 224 4.3 12.2 0.00 0.00 0.00 35 1009.9
20260507215313 67 126 3.5 6.1 0.00 0.00 0.00 37 1009.9
20260507214810 67 127 0.9 1.7 0.00 0.00 0.00 36 1009.8
20260507214307 65 102 3.5 6.1 0.00 0.00 0.00 34 1009.8
20260507213802 67 89 3.5 9.6 0.00 0.00 0.00 33 1009.5
20260507213259 66 107 3.5 7.8 0.00 0.00 0.00 37 1009.6
20260507212756 65 80 3.5 6.1 0.00 0.00 0.00 36 1009.6
20260507212252 66 113 4.3 7.8 0.00 0.00 0.00 36 1009.6
20260507211749 65 296 5.2 9.6 0.00 0.00 0.00 33 1009.9
20260507211245 67 31 4.3 7.0 0.00 0.00 0.00 37 1009.6
20260507210742 67 163 5.2 8.7 0.00 0.00 0.00 33 1009.3
20260507210239 66 40 6.1 9.6 0.00 0.00 0.00 36 1009.4
20260507205736 67 40 7.0 8.7 0.00 0.00 0.00 35 1009.5
20260507205232 67 100 5.2 11.3 0.00 0.00 0.00 33 1009.5
20260507204728 66 65 1.7 9.6 0.00 0.00 0.00 34 1009.4
20260507204227 70 187 5.2 6.1 0.00 0.00 0.00 32 1009.4
20260507203724 70 202 4.3 7.0 0.00 0.00 0.00 32 1009.5
20260507203221 68 112 4.3 7.0 0.00 0.00 0.00 34 1009.4
20260507202717 67 91 8.7 9.6 0.00 0.00 0.00 34 1009.5
20260507202214 67 295 1.7 5.2 0.00 0.00 0.00 33 1009.8
20260507201708 67 35 3.5 7.0 0.00 0.00 0.00 35 1009.6
20260507201206 67 43 3.5 8.7 0.00 0.00 0.00 37 1009.8
20260507200702 68 37 3.5 3.5 0.00 0.00 0.00 35 1009.8
20260507200158 68 188 3.5 8.7 0.00 0.00 0.00 36 1009.4
20260507195654 68 161 1.7 7.8 0.00 0.00 0.00 32 1009.9
20260507195152 68 117 3.5 9.6 0.00 0.00 0.00 35 1009.8
20260507194649 69 327 0.9 6.1 0.00 0.00 0.00 31 1009.8
20260507194144 70 109 7.8 11.3 0.00 0.00 0.00 34 1009.8
20260507193641 67 78 2.6 3.5 0.00 0.00 0.00 35 1009.8
20260507193138 68 114 5.2 8.7 0.00 0.00 0.00 35 1009.9
20260507192634 67 145 3.5 6.1 0.00 0.00 0.00 34 1010.0
20260507192131 67 9 2.6 12.2 0.00 0.00 0.00 36 1009.8
20260507191627 67 50 3.5 6.1 0.00 0.00 0.00 37 1009.8
20260507191124 66 59 2.6 5.2 0.00 0.00 0.00 43 1010.0
20260507190621 67 32 4.3 7.0 0.00 0.00 0.00 39 1009.9
20260507190120 67 350 5.2 6.1 0.00 0.00 0.00 38 1010.2
20260507185618 68 104 3.5 8.7 0.00 0.00 0.00 36 1010.0
20260507185114 66 293 0.9 1.7 0.00 0.00 0.00 40 1010.1
20260507184612 67 41 4.3 7.0 0.00 0.00 0.00 41 1010.1
20260507184110 67 197 5.2 8.7 0.00 0.00 0.00 38 1010.2
20260507183606 66 100 6.1 8.7 0.00 0.00 0.00 40 1010.2
20260507183103 67 76 5.2 7.0 0.00 0.00 0.00 40 1010.3
20260507182559 66 91 2.6 3.5 0.00 0.00 0.00 41 1010.2
20260507182055 66 51 4.3 8.7 0.00 0.00 0.00 40 1010.2
20260507181553 66 1 3.5 5.2 0.00 0.00 0.00 40 1010.5
20260507181049 66 64 6.1 7.0 0.00 0.00 0.00 41 1010.3
20260507180545 67 23 7.0 11.3 0.00 0.00 0.00 45 1010.6
20260507180042 67 110 2.6 9.6 0.00 0.00 0.00 38 1010.6
20260507175538 68 288 0.9 8.7 0.00 0.00 0.00 41 1010.5
20260507175037 67 128 3.5 5.2 0.00 0.00 0.00 43 1010.7
20260507174533 67 146 7.0 8.7 0.00 0.00 0.00 40 1010.5
20260507174031 65 84 4.3 7.8 0.00 0.00 0.00 42 1010.8
20260507173527 66 49 1.7 3.5 0.00 0.00 0.00 49 1010.9
20260507173025 66 359 0.9 3.5 0.00 0.00 0.00 44 1011.1
20260507172520 66 89 0.9 8.7 0.00 0.00 0.00 44 1011.0
20260507172017 65 346 1.7 5.2 0.00 0.00 0.00 43 1011.2
20260507171513 63 93 3.5 13.0 0.00 0.00 0.00 44 1011.4
20260507171011 63 43 1.7 6.1 0.00 0.00 0.00 46 1011.5
20260507170507 63 28 3.5 7.0 0.00 0.00 0.00 49 1011.3
20260507170004 62 59 4.3 6.1 0.00 0.00 0.00 49 1011.4
20260507165459 63 48 5.2 7.0 0.00 0.00 0.00 48 1011.5
20260507164956 63 63 2.6 5.2 0.00 0.00 0.00 48 1011.7
20260507164453 61 62 3.5 11.3 0.00 0.00 0.00 48 1011.8
20260507163949 63 41 9.6 11.3 0.00 0.00 0.00 46 1011.9
20260507163447 63 40 5.2 9.6 0.00 0.00 0.00 49 1011.9
20260507162944 63 26 5.2 7.0 0.00 0.00 0.00 52 1012.0
20260507162439 62 78 3.5 7.8 0.00 0.00 0.00 48 1012.1
20260507161936 63 143 1.7 6.1 0.00 0.00 0.00 45 1012.2
20260507161432 62 76 3.5 6.1 0.00 0.00 0.00 48 1012.2
20260507160929 62 60 5.2 8.7 0.00 0.00 0.00 51 1012.5
20260507160425 61 76 5.2 7.0 0.00 0.00 0.00 54 1012.3
20260507155921 60 52 5.2 6.1 0.00 0.00 0.00 53 1012.5
20260507155417 61 31 2.6 7.8 0.00 0.00 0.00 50 1012.6
20260507154915 60 54 4.3 6.1 0.00 0.00 0.00 59 1012.9
20260507154411 60 66 2.6 5.2 0.00 0.00 0.00 55 1012.8
20260507153909 60 104 3.5 7.0 0.00 0.00 0.00 53 1012.9
20260507153405 59 46 0.9 2.6 0.00 0.00 0.00 56 1013.0
20260507152901 58 64 3.5 3.5 0.00 0.00 0.00 55 1013.0
20260507152358 58 84 1.7 3.5 0.00 0.00 0.00 57 1013.3
20260507151854 57 50 5.2 7.0 0.00 0.00 0.00 61 1013.4
20260507151350 56 88 0.9 2.6 0.00 0.00 0.00 59 1013.4
20260507150847 57 43 3.5 6.1 0.00 0.00 0.00 58 1013.5
20260507150344 56 62 0.0 1.7 0.00 0.00 0.00 58 1013.6
20260507145840 56 66 5.2 6.1 0.00 0.00 0.00 60 1013.6
20260507145337 58 39 3.5 6.1 0.00 0.00 0.00 61 1013.5
20260507144834 58 33 5.2 7.8 0.00 0.00 0.00 60 1013.5
20260507144331 57 153 0.9 1.7 0.00 0.00 0.00 59 1013.8
20260507143827 57 33 4.3 6.1 0.00 0.00 0.00 65 1014.0
20260507143325 56 344 3.5 7.0 0.00 0.00 0.00 59 1014.0
20260507142821 56 35 3.5 5.2 0.00 0.00 0.00 59 1014.0
20260507142317 56 20 5.2 8.7 0.00 0.00 0.00 65 1014.1
20260507141814 56 35 7.0 9.6 0.00 0.00 0.00 64 1014.2
20260507141311 56 42 6.1 13.0 0.00 0.00 0.00 61 1014.2
20260507140807 56 31 9.6 12.2 0.00 0.00 0.00 61 1014.4
20260507140304 56 47 8.7 11.3 0.00 0.00 0.00 63 1014.2
20260507135802 56 32 6.1 11.3 0.00 0.00 0.00 65 1014.5
20260507135259 55 30 5.2 8.7 0.00 0.00 0.00 64 1014.6
20260507134755 54 30 3.5 6.1 0.00 0.00 0.00 68 1014.6
20260507134252 54 29 4.3 7.0 0.00 0.00 0.00 66 1014.8
20260507133747 54 357 5.2 7.8 0.00 0.00 0.00 69 1014.5
20260507133244 54 43 5.2 7.0 0.00 0.00 0.00 67 1014.9
20260507132742 54 54 5.2 7.0 0.00 0.00 0.00 69 1015.0
20260507132238 53 55 5.2 7.8 0.00 0.00 0.00 70 1014.9
20260507131735 52 34 3.5 7.0 0.00 0.00 0.00 72 1014.9
20260507131233 52 42 6.1 7.0 0.00 0.00 0.00 72 1015.0
20260507130729 52 34 5.2 7.0 0.00 0.00 0.00 72 1014.9
20260507130227 51 31 4.3 6.1 0.00 0.00 0.00 74 1015.2
20260507125725 51 22 4.3 7.0 0.00 0.00 0.00 73 1015.5
20260507125223 51 32 6.1 7.0 0.00 0.00 0.00 74 1015.0
20260507124719 52 23 4.3 6.1 0.00 0.00 0.00 74 1015.1
20260507124216 51 26 3.5 5.2 0.00 0.00 0.00 74 1015.1
20260507123715 51 36 4.3 7.0 0.00 0.00 0.00 75 1015.0
20260507123212 51 32 7.0 8.7 0.00 0.00 0.00 74 1015.0
20260507122706 51 1 6.1 7.0 0.00 0.00 0.00 73 1015.0
20260507122203 51 41 4.3 8.7 0.00 0.00 0.00 74 1014.9
20260507121659 51 29 3.5 7.0 0.00 0.00 0.00 75 1014.9
20260507121155 51 37 4.3 6.1 0.00 0.00 0.00 75 1014.9
20260507120651 51 341 1.7 3.5 0.00 0.00 0.00 77 1014.6
20260507120148 51 3 1.7 2.6 0.00 0.00 0.00 77 1014.9
20260507115644 51 42 2.6 5.2 0.00 0.00 0.00 77 1015.0
20260507115140 51 27 1.7 3.5 0.00 0.00 0.00 75 1014.6
20260507114636 51 7 5.2 6.1 0.00 0.00 0.00 74 1014.4
20260507114133 51 349 2.6 5.2 0.00 0.00 0.00 75 1014.4
20260507113631 51 317 3.5 3.5 0.00 0.00 0.00 78 1014.4
20260507113127 51 16 2.6 2.6 0.00 0.00 0.00 79 1014.5
20260507112626 51 32 3.5 3.5 0.00 0.00 0.00 79 1014.3
20260507112122 51 4 2.6 5.2 0.00 0.00 0.00 80 1014.3
20260507111619 51 15 3.5 3.5 0.00 0.00 0.00 81 1014.4
20260507111116 51 8 1.7 3.5 0.00 0.00 0.00 81 1014.0
20260507110612 51 8 1.7 3.5 0.00 0.00 0.00 82 1014.1
20260507110109 51 12 0.9 2.6 0.00 0.00 0.00 83 1014.2
20260507105606 51 31 1.7 2.6 0.00 0.00 0.00 83 1014.1
20260507105101 51 49 1.7 3.5 0.00 0.00 0.00 83 1014.2
20260507104559 51 38 2.6 3.5 0.00 0.00 0.00 84 1013.9
20260507104055 51 44 1.7 3.5 0.00 0.00 0.00 85 1013.7
20260507103551 52 30 2.6 5.2 0.00 0.00 0.00 80 1014.0
20260507103048 52 13 2.6 3.5 0.00 0.00 0.00 78 1013.8
20260507102545 51 293 0.0 0.9 0.00 0.00 0.00 82 1013.6
20260507102041 52 11 1.7 1.7 0.00 0.00 0.00 83 1013.6
20260507101536 51 266 0.0 0.9 0.00 0.00 0.00 80 1013.6
20260507101033 51 271 0.9 0.9 0.00 0.00 0.00 80 1013.7
20260507100531 51 264 0.9 0.9 0.00 0.00 0.00 80 1013.6
20260507100028 51 253 0.9 0.9 0.00 0.00 0.00 82 1013.5
20260507095526 51 274 0.0 0.9 0.00 0.00 0.00 84 1013.1
20260507095023 52 15 0.9 0.9 0.00 0.00 0.00 85 1013.1
20260507094519 52 357 0.9 0.9 0.00 0.00 0.00 82 1013.5
20260507094016 52 270 1.7 1.7 0.00 0.00 0.00 77 1013.5
20260507093513 52 273 0.0 0.9 0.00 0.00 0.00 78 1013.3
20260507093012 52 332 0.9 0.9 0.00 0.00 0.00 78 1013.5
20260507092508 51 271 0.0 0.0 0.00 0.00 0.00 79 1013.6
20260507092005 51 281 0.0 0.0 0.00 0.00 0.00 82 1013.6
20260507091502 51 314 0.0 0.9 0.00 0.00 0.00 82 1013.4
20260507090957 51 333 0.0 0.0 0.00 0.00 0.00 83 1013.6
20260507090453 52 320 0.0 0.0 0.00 0.00 0.00 83 1013.4
20260507085950 52 1 0.0 0.9 0.00 0.00 0.00 82 1013.3
20260507085447 52 30 0.9 1.7 0.00 0.00 0.00 76 1013.1
20260507084939 53 304 0.0 1.7 0.00 0.00 0.00 76 1013.3
20260507084436 52 286 1.7 3.5 0.00 0.00 0.00 75 1013.3
20260507083933 52 300 0.0 2.6 0.00 0.00 0.00 75 1013.4
20260507083429 52 297 0.9 1.7 0.00 0.00 0.00 77 1013.5
20260507082925 52 292 0.0 1.7 0.00 0.00 0.00 79 1013.7
20260507082421 52 278 0.9 1.7 0.00 0.00 0.00 78 1013.5
20260507081918 52 283 0.9 0.9 0.00 0.00 0.00 78 1013.5
20260507081414 52 240 0.0 0.0 0.00 0.00 0.00 78 1013.4
20260507080911 52 252 0.0 0.9 0.00 0.00 0.00 77 1013.4
20260507080408 52 273 0.0 0.0 0.00 0.00 0.00 78 1013.5
20260507075903 52 275 0.0 1.7 0.00 0.00 0.00 77 1013.6
20260507075359 53 286 0.0 0.0 0.00 0.00 0.00 77 1013.6
20260507074856 53 331 1.7 1.7 0.00 0.00 0.00 76 1013.7
20260507074353 52 339 0.9 0.9 0.00 0.00 0.00 77 1013.5
20260507073850 52 328 0.9 0.9 0.00 0.00 0.00 78 1013.4
20260507073346 52 287 0.0 0.0 0.00 0.00 0.00 79 1013.3
20260507072844 52 356 0.9 1.7 0.00 0.00 0.00 79 1013.1
20260507072341 53 4 0.9 2.6 0.00 0.00 0.00 78 1013.3
20260507071839 53 6 0.9 2.6 0.00 0.00 0.00 77 1013.0
20260507071336 53 329 0.9 1.7 0.00 0.00 0.00 77 1013.0
20260507070832 53 4 1.7 1.7 0.00 0.00 0.00 77 1013.1
20260507070329 53 319 0.9 1.7 0.00 0.00 0.00 77 1013.3
20260507065826 53 332 0.9 3.5 0.00 0.00 0.00 77 1013.3
20260507065322 53 298 1.7 2.6 0.00 0.00 0.00 78 1013.0
20260507064820 52 320 0.9 1.7 0.00 0.00 0.00 79 1013.0
20260507064318 52 338 2.6 3.5 0.00 0.00 0.00 80 1013.4
20260507063816 52 4 1.7 2.6 0.00 0.00 0.00 80 1013.4
20260507063312 52 349 0.9 2.6 0.00 0.00 0.00 81 1013.4
20260507062809 52 5 1.7 2.6 0.00 0.00 0.00 82 1013.4
20260507062307 53 4 1.7 2.6 0.00 0.00 0.00 82 1013.7
20260507061805 52 335 0.0 1.7 0.00 0.00 0.00 82 1013.7
20260507061302 53 355 1.7 2.6 0.00 0.00 0.00 83 1013.4
20260507060800 53 330 1.7 1.7 0.00 0.00 0.00 83 1013.7
20260507060256 52 23 1.7 2.6 0.00 0.00 0.00 84 1013.8
20260507055753 52 6 1.7 1.7 0.00 0.00 0.00 84 1013.7
20260507055248 52 4 0.9 1.7 0.00 0.00 0.00 84 1014.1
20260507054745 52 337 0.9 2.6 0.00 0.00 0.00 84 1013.9
20260507054241 52 318 0.9 0.9 0.00 0.00 0.00 86 1014.0
20260507053739 52 355 0.9 1.7 0.00 0.00 0.00 87 1013.9
20260507053236 52 26 1.7 2.6 0.00 0.00 0.00 87 1014.1
20260507052736 52 336 0.9 1.7 0.00 0.00 0.00 88 1013.9
20260507052231 52 345 3.5 3.5 0.00 0.00 0.00 89 1013.9
20260507051729 52 17 1.7 5.2 0.00 0.00 0.00 88 1013.8
20260507051226 52 329 1.7 3.5 0.00 0.00 0.00 89 1013.7
20260507050722 52 0 2.6 5.2 0.00 0.00 0.00 89 1013.7
20260507050220 52 320 3.5 7.0 0.00 0.00 0.00 88 1013.7
20260507045716 52 333 2.6 5.2 0.00 0.00 0.00 87 1013.5
20260507045213 53 325 3.5 6.1 0.00 0.00 0.00 86 1013.7
20260507044710 53 333 4.3 7.8 0.00 0.00 0.00 85 1013.6
20260507044206 53 31 7.8 8.7 0.00 0.00 0.00 85 1013.5
20260507043703 53 54 9.6 11.3 0.00 0.00 0.00 85 1013.4
20260507043159 53 19 7.0 11.3 0.00 0.00 0.00 83 1013.4
20260507042656 54 30 10.4 13.9 0.00 0.00 0.00 82 1013.0
20260507042151 55 0 3.5 7.0 0.00 0.00 0.00 81 1013.4
20260507041649 55 0 4.3 11.3 0.00 0.00 0.00 80 1013.1
20260507041144 55 37 5.2 8.7 0.00 0.00 0.00 81 1013.1
20260507040641 56 25 7.8 11.3 0.00 0.00 0.00 81 1013.0
20260507040138 56 40 6.1 7.8 0.00 0.00 0.00 81 1012.2
20260507035634 56 40 6.1 7.8 0.00 0.00 0.00 81 1012.2
20260507035130 56 31 5.2 7.8 0.00 0.00 0.00 81 1012.5
20260507034627 56 22 5.2 7.0 0.00 0.00 0.00 81 1012.9
20260507034125 57 32 6.1 7.0 0.00 0.00 0.00 80 1013.4
20260507033623 57 13 3.5 5.2 0.00 0.00 0.00 80 1013.1
20260507033120 57 336 3.5 5.2 0.00 0.00 0.00 80 1012.9
20260507032617 57 348 2.6 3.5 0.00 0.00 0.00 79 1012.6
20260507032113 57 315 2.6 5.2 0.00 0.00 0.00 80 1012.6
20260507031610 57 347 4.3 6.1 0.00 0.00 0.00 80 1012.9
20260507031107 57 24 7.0 7.8 0.00 0.00 0.00 80 1013.1
20260507030603 57 25 6.1 7.8 0.00 0.00 0.00 80 1013.0
20260507025558 58 34 7.8 7.8 0.00 0.00 0.00 79 1013.1
20260507025055 58 28 3.5 7.0 0.00 0.00 0.00 78 1013.1
20260507024553 58 353 4.3 6.1 0.00 0.00 0.00 78 1013.0
20260507024049 58 327 2.6 5.2 0.00 0.00 0.00 78 1012.6
20260507023544 58 8 1.7 5.2 0.00 0.00 0.00 78 1012.6
20260507023043 58 30 3.5 5.2 0.00 0.00 0.00 78 1012.6
20260507022539 58 340 2.6 3.5 0.00 0.00 0.00 78 1012.6
20260507022034 58 340 2.6 5.2 0.00 0.00 0.00 80 1012.5
20260507021531 59 11 3.5 6.1 0.00 0.00 0.00 78 1012.5
20260507021027 59 1 3.5 5.2 0.00 0.00 0.00 78 1012.4
20260507020525 59 64 2.6 6.1 0.00 0.00 0.00 77 1012.7
20260507020021 59 344 2.6 6.1 0.00 0.00 0.00 77 1012.7
20260507015520 59 290 2.6 3.5 0.00 0.00 0.00 78 1012.5
20260507015017 59 315 1.7 3.5 0.00 0.00 0.00 78 1011.9
20260507014513 59 314 1.7 2.6 0.00 0.00 0.00 79 1011.5
20260507014009 59 22 3.5 5.2 0.00 0.00 0.00 78 1011.9
20260507013506 59 330 4.3 6.1 0.00 0.00 0.00 79 1012.0
20260507013003 60 22 6.1 7.8 0.00 0.00 0.00 79 1012.0
20260507012500 60 32 5.2 7.0 0.00 0.00 0.00 79 1011.9
20260507011956 61 348 3.5 5.2 0.00 0.00 0.00 78 1011.8
20260507011454 61 305 2.6 5.2 0.00 0.00 0.00 76 1012.0
20260507010949 61 23 3.5 7.0 0.00 0.00 0.00 77 1012.0
20260507010444 61 333 3.5 7.0 0.00 0.00 0.00 78 1012.0
20260507005941 61 342 5.2 6.1 0.00 0.00 0.00 78 1011.5
20260507005438 61 15 3.5 5.2 0.00 0.00 0.00 79 1011.8
20260507004935 61 310 1.7 2.6 0.00 0.00 0.00 78 1011.8
20260507004431 61 321 1.7 3.5 0.00 0.00 0.00 79 1011.8
20260507003929 61 23 3.5 5.2 0.00 0.00 0.00 80 1011.5
20260507003424 61 11 3.5 5.2 0.00 0.00 0.00 80 1011.8
20260507002919 61 345 3.5 7.0 0.00 0.00 0.00 81 1011.9
20260507002416 61 345 1.7 3.5 0.00 0.00 0.00 81 1012.2
20260507001913 61 324 4.3 5.2 0.00 0.00 0.00 81 1012.0
20260507001410 62 0 2.6 6.1 0.00 0.00 0.00 80 1011.7
20260507000907 62 354 1.7 2.6 0.00 0.00 0.00 79 1011.3
20260507000402 63 354 0.9 2.6 0.00 0.00 0.00 79 1011.5
20260506235859 63 299 3.5 3.5 0.00 0.00 0.00 79 1011.4
20260506235356 63 19 1.7 3.5 0.00 0.00 0.00 79 1011.7
20260506234851 63 359 2.6 3.5 0.00 0.00 0.00 79 1011.6
20260506234349 63 351 1.7 1.7 0.00 0.00 0.00 79 1011.5
20260506233847 64 301 0.0 0.0 0.00 0.00 0.00 77 1011.2